Weather in Zgorzelec

Poland     51°09′07″N   15°00′55″E
temp.,
°C
wind,
m/s
gust,
m/s
humid.,
%
clouds,
%
prec.,
mm/h
press.,
hPa
HPBL,
m
18 may, tue
tue1823:00+9wsw41094100 0.2 1007248
02:00+7wsw41295100 0.2 1008352
05:00+7wsw41196100 0.0 1008344
08:00+9w51096100 0.0 1010593
11:00+10w6992100 0.3 1011854
14:00+11wnw6108755 0.6 1012767
17:00+13w697699 0.5 1011867
20:00+11w488647 1.3 1012268
19 may, wed
wed1923:00+7wsw369395 0.2 101396
02:00+8wsw4995100 1.0 1013322
05:00+7wsw389586 0.5 1014306
08:00+8w4695100 0.7 1014351
11:00+9nw4788100 0.8 1015823
14:00+12wnw247771 1.3 1015937
17:00+13wnw34708 1.6 10141047
20:00+11w34845 2.6 101475
20 may, thu
thu2023:00+7wsw22905 0.1 101616
02:00+6wsw22903 0.1 101616
05:00+5sw22918 0.1 101720
08:00+9w578935 0.4 1018413
11:00+13wnw676852 0.3 10181335
14:00+14nw466699 0.6 10181388
17:00+15wnw575913 0.3 10191341
20:00+11wsw510800 0.5 1020289
21 may, fri
fri2123:00+7sw34915 0.0 102148
02:00+6ssw359175 0.0 102079
05:00+6s4891100 0.0 1019124
08:00+10s61180100 0.0 1017335
11:00+14ssw71065100 0.0 1015907
14:00+16ssw61062100 0.0 10131644
17:00+13ssw61376100 0.9 10111103
20:00+12sw4976100 0.9 1010302
22 may, sat
sat2223:00+11sse2386100 0.3 100993
02:00+11ssw61392100 1.7 1008391
05:00+10sse3793100 0.4 1006187
08:00+11ssw51092100 1.9 1007409
11:00+13wsw5684100 0.6 1006986
14:00+12wsw4885100 1.5 1007779
17:00+14wsw51067100 0.3 10071420
20:00+11wsw3779100 0.4 1008168